Tracking 31027 objects as of 19-Jul-2025
HD Live streaming from Space Station
objects crossing your sky now

COSMOS 1275 DEB

Track COSMOS 1275 DEB now!
10-day predictions


NORAD ID: 12648
Int'l Code: 1981-053C
Perigee: 954.0 km
Apogee: 977.0 km
Inclination: 83.0 °
Period: 104.2 minutes
Semi major axis: 7336 km
RCS: 0.408 m2 (medium)
Launch date: June 4, 1981
Source: Commonwealth of Independent States (former USSR) (CIS)
Launch site: PLESETSK MISSILE AND SPACE COMPLEX (PKMTR)

Note: This is SATELLITE DEBRIS
Your satellite tracking list
SL-8 R/B
Track 1 satellite(s)




NASA's NSSDC Master Catalog

Two Line Element Set (TLE):
1 12648U 81053C   25199.44498182  .00000205  00000-0  17810-3 0  9991
2 12648  82.9690  96.1197 0015686  37.5411 135.8381 13.81547949211584
Source of the keplerian elements: AFSPC